Regional Weather Roundup
Issued by NWS Charleston, SC

Current Version | Previous Version | Graphics & Text | Print | Product List | Glossary On
Versions: 1 2 3 4 5 6 7 8 9 10 11 12 13 14 15 16 17 18 19 20 21 22 23 24 25 26 27 28 29 30 31 32 33 34 35 36 37 38 39 40 41 42 43 44 45 46 47 48 49 50
000 ASUS42 KCHS 290310 RWRCHS REGIONAL WEATHER ROUNDUP NATIONAL WEATHER SERVICE CHARLESTON SC 1000 PM EST FRI NOV 28 2014 NOTE: "FAIR" INDICATES FEW OR NO CLOUDS BELOW 12,000 FEET WITH NO SIGNIFICANT WEATHER AND/OR OBSTRUCTIONS TO VISIBILITY. NOT ALL STATIONS ARE QUALITY CONTROLLED BY THE NATIONAL WEATHER SERVICE. USE DATA WITH CAUTION...ESPECIALLY DEWPOINT OBSERVATIONS. SCZ027-030-031-034>040-042>050-290400- ...SOUTHEAST SOUTH CAROLINA... CITY SKY/WX TMP DP RH WIND PRES REMARKS N CHARLESTON CLEAR 37 30 75 CALM 30.34F WATERFRONT PRK N/A 45 N/A N/A N5 N/A MOUNT PLEASANT FAIR 34 34 100 CALM 30.35S JOHNS ISLAND CLEAR 36 36 100 CALM 30.35F PINOPOLIS N/A 43 32 65 CALM 30.26F MONCKS CORNER FAIR 34 34 100 CALM 30.34F SUMMERVILLE FAIR 32 32 100 CALM 30.35F BEAUFORT MCAS CLEAR 36 32 85 CALM 30.34F BEAUFORT ARPT FAIR 36 36 100 CALM 30.34F HILTON HEAD IS CLEAR 34 32 93 CALM 30.36F WALTERBORO CLEAR 32 N/A N/A CALM 30.36S ALLENDALE FAIR 34 32 93 CALM 30.33S ...SOUTHERN MIDLANDS AND PEE DEE... CITY SKY/WX TMP DP RH WIND PRES REMARKS GEORGETOWN NOT AVBL KINGSTREE NOT AVBL ORANGEBURG CLEAR 32 29 88 CALM 30.33F BARNWELL N/A 32 32 100 CALM 30.33F AIKEN FAIR 32 30 93 CALM 30.35S MANNING NOT AVBL COLUMBIA CLEAR 33 28 81 CALM 30.33S SUMTER CLEAR 33 29 88 CALM 30.31F FLORENCE CLEAR 33 28 81 CALM 30.34S MYRTLE BEACH CLEAR 36 30 80 VRB6 30.34F WCI 31 N MYRTLE BEACH CLEAR 31 29 92 CALM 30.34F $$ GAZ063-065-086>088-099>101-113>116-118-119-134>141-150-290400- ...SOUTHEAST GEORGIA... CITY SKY/WX TMP DP RH WIND PRES REMARKS SAVANNAH ARPT CLEAR 37 31 78 CALM 30.35F HUNTER AAF CLEAR 37 34 90 CALM 30.33S FORT STEWART CLEAR 35 33 91 CALM 30.34S STATESBORO NOT AVBL SYLVANIA CLEAR 36 35 96 CALM 30.35R CLAXTON NOT AVBL ...CSRA...CENTRAL AND FAR SOUTHEAST GEORGIA... CITY SKY/WX TMP DP RH WIND PRES REMARKS THOMSON CLEAR 33 33 100 CALM 30.36F AUGUSTA-BUSH CLEAR 31 27 85 CALM 30.33F AUGUSTA-DANIEL CLEAR 41 27 57 CALM 30.32F SWAINSBORO FAIR 36 36 100 CALM 30.34S VIDALIA CLEAR 37 34 87 CALM 30.33S HAZLEHURST FAIR 38 37 96 CALM 30.32F ALMA CLEAR 34 32 92 CALM 30.34S WAYCROSS CLEAR 39 38 96 CALM 30.33F JESUP FAIR 36 36 100 CALM 30.34F BAXLEY FAIR 36 36 100 CALM 30.33S BRUNSWICK CLEAR 36 34 93 CALM 30.36S SAINT SIMONS CLEAR 39 34 82 CALM 30.35S $$ SCZ027-028-034-036>038-045-046-048>050-GAZ119-141-290400- ...LAKE AND SUPPLEMENTAL COASTAL OBSERVATIONS... STATION/POSITION TIME TEMP WIND PRES WAVE SWELL AIR SEA DIR/SP/G HT/PER HT/PER/DIR (UTC) (F) (DEG/KT/KT) (MB) (FT/S) (FT/S/D) UPR LAKE MARION NOT AVBL WINYAH BAY 0200 35 320/ 3 1027.0S LAKE MURRAY 0200 44 120/ 3/ 5 1026.1S ACE BASIN NERRS 0200 35 CALM 1027.0S FORT PULASKI 0300 45 210/ 2/ 2 1027.9F SAPELO ISLAND 0200 37 30/ 2 1027.0S $$ ANZ835-935-AMZ111-154-330-350-352-354-370-450-454-472-290400- ...C-MAN AND BUOY OBSERVATIONS... STATION/POSITION TIME TEMP WIND PRES WAVE SWELL AIR SEA DIR/SP/G HT/PER HT/PER/DIR (UTC) (F) (DEG/KT/KT) (MB) (FT/S) (FT/S/D) BUOY 41004 0300 50 72 10/ 6/ 10 1027.1S 4/ 9 3/ 9 BUOY 41008 0300 50 62 20/ 6/ 8 1027.5R 3/ 6 3/ 70/ 6 FOLLY BEACH CMAN 0200 44 350/ 4/ 6 1028.0S CAPERS NEARSHORE 0200 46 340/ 8/ 8 N/A FRIPP NEARSHORE NOT AVBL STATION/POSITION TIME TEMP WIND PRES WAVE SWELL AIR SEA DIR/SP/G HT/PER HT/PER/DIR (UTC) (F) (DEG/KT/KT) (MB) (FT/S) (FT/S/D) 5E ST. MARYS GA 0300 60 N/A 3/ 7 2/110/13 FRYING PAN BUOY 0300 47 67 360/ 8/ 12 1027.6F 3/10 3/140/10 BUOY 41025 0300 42 310/ 8/ 16 1027.0R 4/ 9 3/ 60/ 9 CAPE LOOKOUT NC 0200 42 350/ 6/ 7 1027.2R BUOY 41002 0248 58 72 360/ 16/ 19 1024.5R 8/ 9 7/ 10/ 9 BUOY 41010 0300 65 77 20/ 14/ 19 1023.9S 6/ 7 5/360/ 7 ST AUGUSTINE FL 0300 47 330/ 6/ 7 1027.2S $$

USA.gov is the U.S. government's official web portal to all federal, state and local government web resources and services.